Starlink 11568

operational
NORAD ID: 63307 Int'l Des: 2025-057 Owner: SPXS Country: US Constellation: starlink
LEOCIRCULAR

Über Starlink 11568

Beschreibung wird geladen...

Live-Position

3D-Globus wird geladen...

Nächste Überflüge

Höhenverlauf

Altitude vs Time

uPlot chart will show altitude changes over time

Zweizeiliger Elementsatz

1 63307U 25057A 25306.34767360 .00217020 00000-0 16457-2 0 9997
2 63307 43.0004 311.7849 0001312 260.2954 99.7765 15.70916144 37157
Epoch: 2. Nov. 2025 • Age: 11 hours

Aktueller Status

Höhe 361.8 km
Geschwindigkeit 7.69 km/s
Subsatellitenpunkt -26.08°S, 47.45°W
Startdatum 18. März 2025
Alter 0.6 years
Typ internet

Technische Details

Klassifizierung Payload
Masse 960.00 kg
Trockenmasse 910.00 kg
Gesamtmasse 960.00 kg
Länge 0.30 m
Durchmesser 4.10 m
Spannweite 29.00 m
Form Box + pan
Hersteller SPXS
Bus-Typ Starlink V2MD
Phasenstatus In Orbit
Besitzer/Staat SPXS/US

Große Konstellationen

Loading constellations...